Regional Weather Roundup
Issued by NWS

Home | Current Version | Previous Version | Graphics & Text | Print | Product List | Glossary On
Versions: 1 2 3 4 5 6 7 8 9 10 11 12 13 14 15 16 17 18 19 20 21 22 23 24 25 26 27 28 29 30 31 32 33 34 35 36 37 38 39 40 41 42 43 44 45 46 47 48 49 50
000
ASUS43 KLMK 260410
RWRKY
KENTUCKY REGIONAL WEATHER ROUNDUP
NATIONAL WEATHER SERVICE LOUISVILLE KY
1200 AM EDT SUN APR 26 2015

NOTE "FAIR" INDICATES FEW OR NO CLOUDS BELOW 12,000 FEET
WITH NO SIGNIFICANT WEATHER AND/OR OBSTRUCTIONS TO VISIBILITY.

KYZ001>023-026-027-061>063-070>075-260500-
WESTERN AND SOUTH CENTRAL KENTUCKY

CITY           SKY/WX    TMP DP  RH WIND       PRES   REMARKS
PADUCAH        CLOUDY    62  58  86 N5        29.61R
HENDERSON      CLOUDY    55  52  88 N10       29.63R
OWENSBORO      CLOUDY    57  56  97 N7        29.62R
HOPKINSVILLE   MOCLDY    59  59 100 SW6       29.61R
BOWLING GREEN  PTCLDY    60  58  92 W6        29.58R
GLASGOW        MOCLDY    59  59 100 CALM      29.56S FOG
$$

KYZ024-025-028>034-038-045-046-053-260500-
NORTH CENTRAL KENTUCKY

CITY           SKY/WX    TMP DP  RH WIND       PRES   REMARKS
LOUISVILLE/SDF CLOUDY    47  45  93 N13       29.63R
LOUISVILLE/LOU CLOUDY    48  44  86 N8        29.64R
FORT KNOX      CLOUDY    50  48  94 N8        29.60R
$$

KYZ035>037-039>044-047>052-055>060-089>105-260500-
NORTHEAST KENTUCKY

CITY           SKY/WX    TMP DP  RH WIND       PRES   REMARKS
LEXINGTON      CLOUDY    46  44  93 NE12G20   29.60R
COVINGTON      CLOUDY    45  41  86 NE14      29.65S
FRANKFORT      CLOUDY    46  43  89 N9        29.59R
$$

KYZ054-064>069-076>088-106>120-260500-
SOUTHEAST KENTUCKY

CITY           SKY/WX    TMP DP  RH WIND       PRES   REMARKS
JACKSON        LGT RAIN  50  48  93 VRB3      29.57F FOG
LONDON         CLOUDY    56  50  80 CALM      29.56R
SOMERSET       CLOUDY    55  55 100 W3        29.58R
MIDDLESBORO    LGT RAIN  59  56  90 W5        29.55R
MONTICELLO     MOCLDY    60  59  97 W6        29.59S
$$



USA.gov is the U.S. government's official web portal to all federal, state and local government web resources and services.